Other Surface Observations
Issued by NWS Jacksonville, FL

Home | Current Version | Previous Version | Text Only | Print | Product List | Glossary On
Versions: 1 2 3 4 5 6 7 8 9 10 11 12 13 14 15 16 17 18 19 20 21 22 23 24 25 26 27 28 29 30 31 32 33 34 35 36 37 38 39 40 41 42 43 44 45 46 47 48 49 50
000
SXUS52 KJAX 201613
OSOJAX
OTHER SURFACE OBSERVATIONS
NATIONAL WEATHER SERVICE JACKSONVILLE FL
1100 AM EST FRI JAN 20 2017

FLZ020>025-030>033-035>038-040-201700-
...FLORIDA...

CITY           SKY/WX    TMP DP  RH WIND       PRES   REMARKS
CECIL FIELD    PTSUNNY   75  64  69 SW10      29.95S
HERLONG FIELD  NOT AVBL
FERNANDINA BCH NOT AVBL
LAKE CITY      FAIR      70  66  88 W10       29.96S
JUNIPER SPGS   NOT AVBL
BUNNELL        NOT AVBL
KEYSTONE HGTS  FAIR      73  64  73 W10       29.96F
$$

GAZ132>136-149>154-162>166-201700-
...GEORGIA...

CITY           SKY/WX    TMP DP  RH WIND       PRES   REMARKS
JESUP          CLOUDY    70  63  78 W6G17     29.94R
HOMERVILLE     FAIR      72  66  83 W12       29.95R
SWAINSBORO     CLOUDY    68  63  83 W7        29.93S
CORDELE        NOT AVBL
EASTMAN        CLOUDY    69  61  76 W5        29.95S
$$

PLEASE NOTE:  THESE OBSERVATIONS ARE NOT QUALITY CONTROLLED AND MAY
NOT BE AVAILABLE AT ALL TIMES.
$$




USA.gov is the U.S. government's official web portal to all federal, state and local government web resources and services.